EN

Hourly Weather Dziadyk

Today, 29 October, Thursday

Time Temperature Precipitation Wind Pressure Humidity
00:00 +9°C° 0.2 mm 3 mps 743 mmHg 83%
01:00 +9°C° 0 mm 3 mps 743 mmHg 83%
02:00 +8°C° 0 mm 3 mps 743 mmHg 86%
03:00 +8°C° 0 mm 3 mps 743 mmHg 89%
04:00 +7°C° 0 mm 2 mps 743 mmHg 92%
05:00 +8°C° 0 mm 3 mps 743 mmHg 91%
06:00 +8°C° 0 mm 3 mps 743 mmHg 90%
07:00 +8°C° 0 mm 3 mps 743 mmHg 88%
08:00 +8°C° 0 mm 4 mps 743 mmHg 85%
09:00 +8°C° 0 mm 4 mps 742 mmHg 82%
10:00 +10°C° 0 mm 4 mps 742 mmHg 79%
11:00 +11°C° 0 mm 4 mps 742 mmHg 75%
12:00 +12°C° 0 mm 4 mps 742 mmHg 71%
13:00 +12°C° 0 mm 5 mps 742 mmHg 69%
14:00 +11°C° 0.2 mm 4 mps 742 mmHg 75%
15:00 +11°C° 0.2 mm 4 mps 742 mmHg 81%
16:00 +10°C° 0.2 mm 3 mps 742 mmHg 86%
17:00 +9°C° 0.1 mm 3 mps 742 mmHg 87%
18:00 +9°C° 0.1 mm 3 mps 743 mmHg 87%
19:00 +8°C° 0.1 mm 3 mps 743 mmHg 88%
20:00 +8°C° 0 mm 3 mps 743 mmHg 87%
21:00 +7°C° 0 mm 3 mps 744 mmHg 86%
22:00 +6°C° 0 mm 4 mps 744 mmHg 86%
23:00 +5°C° 0 mm 4 mps 744 mmHg 87%

Tomorrow, 30 October, Friday

Time Temperature Precipitation Wind Pressure Humidity
00:00 +5°C° 0 mm 4 mps 744 mmHg 88%
01:00 +5°C° 0 mm 4 mps 744 mmHg 89%
02:00 +5°C° 0.3 mm 4 mps 744 mmHg 89%
03:00 +5°C° 0.3 mm 5 mps 744 mmHg 90%
04:00 +5°C° 0.3 mm 5 mps 744 mmHg 91%
05:00 +5°C° 0 mm 5 mps 744 mmHg 90%
06:00 +6°C° 0 mm 4 mps 745 mmHg 89%
07:00 +6°C° 0 mm 4 mps 745 mmHg 88%
08:00 +6°C° 0 mm 4 mps 745 mmHg 85%
09:00 +7°C° 0 mm 4 mps 745 mmHg 83%
10:00 +7°C° 0 mm 4 mps 745 mmHg 80%
11:00 +8°C° 0 mm 4 mps 745 mmHg 78%
12:00 +8°C° 0 mm 4 mps 745 mmHg 77%
13:00 +10°C° 0 mm 3 mps 745 mmHg 75%
14:00 +9°C° 0 mm 3 mps 745 mmHg 78%
15:00 +9°C° 0 mm 2 mps 745 mmHg 80%
16:00 +8°C° 0 mm 2 mps 745 mmHg 83%
17:00 +9°C° 0 mm 1 mps 745 mmHg 85%
18:00 +8°C° 0 mm 1 mps 745 mmHg 86%
19:00 +8°C° 0 mm 1 mps 745 mmHg 88%
20:00 +8°C° 0 mm 1 mps 746 mmHg 90%
21:00 +7°C° 0 mm 1 mps 746 mmHg 92%
22:00 +7°C° 0 mm 1 mps 746 mmHg 93%
23:00 +6°C° 0 mm 1 mps 747 mmHg 94%

Day after tomorrow, 31 October, Saturday

Time Temperature Precipitation Wind Pressure Humidity
00:00 +6°C° 0 mm 1 mps 747 mmHg 94%
01:00 +6°C° 0 mm 1 mps 747 mmHg 94%
02:00 +6°C° 0 mm 1 mps 748 mmHg 94%
03:00 +6°C° 0 mm 1 mps 748 mmHg 94%
04:00 +6°C° 0 mm 1 mps 749 mmHg 94%
05:00 +6°C° 0 mm 1 mps 749 mmHg 94%
06:00 +6°C° 0 mm 1 mps 750 mmHg 95%
07:00 +6°C° 0 mm 1 mps 750 mmHg 95%
08:00 +7°C° 0 mm 1 mps 751 mmHg 91%
09:00 +9°C° 0 mm 1 mps 751 mmHg 87%
10:00 +10°C° 0 mm 1 mps 751 mmHg 83%
11:00 +11°C° 0 mm 1 mps 751 mmHg 80%
12:00 +11°C° 0 mm 1 mps 751 mmHg 77%
13:00 +11°C° 0 mm 0 mps 751 mmHg 74%
14:00 +10°C° 0 mm 0 mps 751 mmHg 78%
15:00 +9°C° 0 mm 0 mps 751 mmHg 82%
16:00 +8°C° 0 mm 0 mps 751 mmHg 86%
17:00 +9°C° 0 mm 1 mps 752 mmHg 87%
18:00 +8°C° 0 mm 1 mps 752 mmHg 89%
19:00 +8°C° 0 mm 1 mps 752 mmHg 90%
20:00 +6°C° 0 mm 2 mps 752 mmHg 90%
21:00 +6°C° 0 mm 2 mps 752 mmHg 91%
22:00 +6°C° 0 mm 2 mps 752 mmHg 91%
23:00 +5°C° 0 mm 2 mps 752 mmHg 92%

1 November, Sunday

Time Temperature Precipitation Wind Pressure Humidity
00:00 +5°C° 0 mm 2 mps 751 mmHg 92%
01:00 +4°C° 0 mm 3 mps 751 mmHg 93%
02:00 +4°C° 0 mm 3 mps 751 mmHg 93%
03:00 +4°C° 0 mm 3 mps 751 mmHg 93%
04:00 +4°C° 0 mm 3 mps 750 mmHg 93%
05:00 +4°C° 0 mm 3 mps 750 mmHg 92%
06:00 +4°C° 0 mm 4 mps 750 mmHg 92%
07:00 +4°C° 0 mm 4 mps 750 mmHg 91%
08:00 +5°C° 0 mm 4 mps 750 mmHg 85%
09:00 +6°C° 0 mm 5 mps 750 mmHg 79%
10:00 +7°C° 0 mm 5 mps 749 mmHg 73%
11:00 +8°C° 0 mm 6 mps 749 mmHg 70%
12:00 +9°C° 0 mm 6 mps 748 mmHg 67%
13:00 +9°C° 0 mm 6 mps 748 mmHg 64%
14:00 +9°C° 0 mm 6 mps 747 mmHg 67%
15:00 +8°C° 0 mm 6 mps 747 mmHg 69%
16:00 +8°C° 0 mm 6 mps 746 mmHg 71%
17:00 +7°C° 0 mm 6 mps 746 mmHg 73%
18:00 +7°C° 0 mm 6 mps 745 mmHg 74%
19:00 +7°C° 0 mm 6 mps 745 mmHg 76%
20:00 +7°C° 0.2 mm 6 mps 745 mmHg 79%
21:00 +8°C° 0.2 mm 6 mps 745 mmHg 83%
22:00 +8°C° 0.2 mm 6 mps 744 mmHg 86%
23:00 +8°C° 0.4 mm 6 mps 744 mmHg 89%

2 November, Monday

Time Temperature Precipitation Wind Pressure Humidity
00:00 +8°C° 0.4 mm 5 mps 744 mmHg 92%
01:00 +9°C° 0.4 mm 5 mps 744 mmHg 94%
02:00 +9°C° 0 mm 5 mps 743 mmHg 95%
03:00 +9°C° 0 mm 5 mps 743 mmHg 95%
04:00 +10°C° 0 mm 5 mps 743 mmHg 95%
05:00 +10°C° 0 mm 5 mps 743 mmHg 95%
06:00 +10°C° 0 mm 5 mps 742 mmHg 95%
07:00 +10°C° 0 mm 5 mps 742 mmHg 95%
08:00 +10°C° 0 mm 6 mps 742 mmHg 94%
09:00 +10°C° 0 mm 6 mps 742 mmHg 93%
10:00 +11°C° 0 mm 6 mps 742 mmHg 92%
11:00 +11°C° 0 mm 6 mps 742 mmHg 92%
12:00 +11°C° 0 mm 6 mps 742 mmHg 92%
13:00 +13°C° 0 mm 6 mps 742 mmHg 92%
14:00 +13°C° 0 mm 5 mps 742 mmHg 91%
15:00 +14°C° 0 mm 5 mps 742 mmHg 90%
16:00 +14°C° 0 mm 5 mps 742 mmHg 89%
17:00 +14°C° 0 mm 5 mps 742 mmHg 89%
18:00 +14°C° 0 mm 5 mps 742 mmHg 89%
19:00 +14°C° 0 mm 5 mps 742 mmHg 90%
20:00 +14°C° 0 mm 5 mps 742 mmHg 89%
21:00 +14°C° 0 mm 5 mps 743 mmHg 89%
22:00 +14°C° 0 mm 5 mps 743 mmHg 89%
23:00 +14°C° 0 mm 5 mps 743 mmHg 89%

3 November, Tuesday

Time Temperature Precipitation Wind Pressure Humidity
00:00 +14°C° 0 mm 5 mps 743 mmHg 89%
01:00 +14°C° 0 mm 5 mps 743 mmHg 89%
02:00 +14°C° 0 mm 5 mps 743 mmHg 89%
03:00 +14°C° 0 mm 5 mps 744 mmHg 88%
04:00 +14°C° 0 mm 5 mps 744 mmHg 88%
05:00 +14°C° 0 mm 4 mps 745 mmHg 88%
06:00 +14°C° 0 mm 4 mps 745 mmHg 88%
07:00 +14°C° 0 mm 4 mps 746 mmHg 88%
08:00 +14°C° 0 mm 4 mps 747 mmHg 82%
09:00 +13°C° 0 mm 4 mps 747 mmHg 76%
10:00 +13°C° 0 mm 4 mps 748 mmHg 69%
11:00 +13°C° 0 mm 4 mps 749 mmHg 67%
12:00 +13°C° 0 mm 3 mps 749 mmHg 66%
13:00 +13°C° 0 mm 3 mps 750 mmHg 64%
14:00 +13°C° 0 mm 2 mps 750 mmHg 67%
15:00 +12°C° 0 mm 2 mps 750 mmHg 71%
16:00 +12°C° 0 mm 1 mps 751 mmHg 74%
17:00 +11°C° 0 mm 1 mps 751 mmHg 76%
18:00 +11°C° 0 mm 1 mps 751 mmHg 78%
19:00 +10°C° 0 mm 1 mps 752 mmHg 79%
20:00 +10°C° 0 mm 1 mps 752 mmHg 79%
21:00 +9°C° 0 mm 2 mps 752 mmHg 79%
22:00 +9°C° 0 mm 2 mps 752 mmHg 79%
23:00 +9°C° 0.1 mm 2 mps 752 mmHg 81%
Show more